CW0565 Weather Reports


time (UTC)temp
C
wind
direction
speed
KPH
gust
KPH
rain 1hr
cm
rain 24hr
cm
rain mn
cm
humidity
%
barometer
mb
20260904170009 12 167 3.2 8.0 0.08 0.61 0.20 92 996.3
20260904164509 12 167 6.4 8.0 0.15 0.61 0.20 92 996.3
20260904163009 13 165 6.4 12.9 0.18 0.58 0.18 91 996.3
20260904161509 13 174 8.0 12.9 0.15 0.56 0.15 90 996.2
20260904160011 13 165 9.7 12.9 0.13 0.61 0.13 87 996.2
20260904154508 13 227 3.2 14.5 0.05 0.56 0.05 83 996.4
20260904153018 15 188 6.4 16.1 0.00 0.51 0.00 81 996.4
20260904151511 15 184 8.0 20.9 0.00 0.51 0.00 78 996.4
20260904150025 15 175 11.3 25.7 0.00 0.61 0.00 74 996.4
20260904144511 16 205 9.7 14.5 0.00 0.61 0.00 68 996.2
20260904143011 16 223 4.8 16.1 0.00 0.61 0.00 67 996.3
20260904141509 16 204 11.3 19.3 0.00 0.61 0.00 65 996.4
20260904140009 16 237 8.0 16.1 0.00 0.61 0.00 65 996.4
20260904134529 17 252 11.3 17.7 0.00 0.61 0.00 61 996.5
20260904133009 17 207 6.4 17.7 0.00 0.61 0.00 62 996.6
20260904131513 16 234 8.0 17.7 0.00 0.61 0.00 63 996.7
20260904130017 17 254 11.3 20.9 0.00 0.61 0.00 62 996.9
20260904123010 17 261 9.7 17.7 0.00 0.61 0.00 61 997.4
20260904121510 17 257 9.7 20.9 0.00 0.61 0.00 60 997.5
20260904120009 17 223 11.3 22.5 0.00 0.61 0.00 61 997.6
20260904114521 17 202 6.4 14.5 0.00 0.61 0.00 63 997.6
20260904113010 16 229 6.4 17.7 0.00 0.61 0.00 64 997.8
20260904111521 16 238 6.4 16.1 0.00 0.61 0.00 62 997.8
20260904110010 16 219 9.7 16.1 0.00 0.61 0.00 63 997.8
20260904104510 16 231 8.0 14.5 0.00 0.61 0.00 63 998.0
20260904103009 16 220 4.8 17.7 0.00 0.61 0.00 63 998.0
20260904101510 15 246 11.3 20.9 0.00 0.61 0.00 64 998.4
20260904100010 16 232 11.3 17.7 0.00 0.64 0.00 63 998.6
20260904094519 16 288 9.7 22.5 0.00 0.64 0.00 62 998.7
20260904093010 16 222 9.7 17.7 0.00 0.64 0.00 63 998.8
20260904091509 15 227 8.0 14.5 0.00 0.64 0.00 66 998.9
20260904090010 15 240 9.7 17.7 0.00 0.66 0.00 70 999.2
20260904084513 14 242 9.7 17.7 0.00 0.66 0.00 74 999.1
20260904083017 13 229 6.4 11.3 0.00 0.66 0.00 76 999.1
20260904081511 13 230 6.4 14.5 0.00 0.66 0.00 78 999.3
20260904080011 12 172 4.8 11.3 0.00 0.66 0.00 83 999.5
20260904074509 12 172 4.8 8.0 0.00 0.66 0.00 82 999.5
20260904073009 12 172 4.8 8.0 0.00 0.66 0.00 86 999.5
20260904071510 11 172 0.0 8.0 0.00 0.66 0.00 90 999.6
20260904070009 11 172 6.4 9.7 0.00 0.66 0.00 91 999.7
20260904064509 11 173 6.4 9.7 0.00 0.66 0.00 92 999.9
20260904063014 11 172 3.2 14.5 0.00 0.66 0.00 92 1000.0
20260904061509 10 160 3.2 8.0 0.00 0.66 0.00 93 999.8
20260904060012 10 160 4.8 8.0 0.00 0.66 0.00 93 1000.2
20260904054510 10 159 4.8 9.7 0.00 0.66 0.00 94 1000.1
20260904053011 10 246 0.0 6.4 0.00 0.66 0.00 93 1000.4
20260904051510 10 246 0.0 6.4 0.00 0.66 0.00 93 1000.7
20260904050009 10 246 3.2 6.4 0.00 0.66 0.00 92 1000.6
20260904044511 10 246 3.2 4.8 0.00 0.66 0.00 90 1000.8
20260904043013 10 246 0.0 0.0 0.00 0.66 0.00 87 1000.7
20260904041510 11 249 0.0 3.2 0.00 0.66 0.00 85 1000.8
20260904040009 11 246 0.0 8.0 0.00 0.66 0.00 86 1000.8
20260904034514 11 246 0.0 8.0 0.00 0.66 0.00 87 1000.9
20260904033009 11 244 0.0 3.2 0.00 0.66 0.00 86 1001.0
20260904031510 11 244 0.0 6.4 0.00 0.66 0.00 85 1000.9
20260904030009 11 246 6.4 12.9 0.00 0.66 0.00 85 1001.2
20260904024513 11 242 3.2 11.3 0.00 0.66 0.00 85 1001.2
20260904023011 11 242 0.0 12.9 0.00 0.66 0.00 85 1001.2
20260904021511 12 240 0.0 12.9 0.00 0.66 0.00 85 1001.3
20260904020010 12 240 0.0 6.4 0.00 0.66 0.00 85 1001.4
20260904014510 12 238 8.0 16.1 0.00 0.66 0.00 85 1001.6
20260904013011 12 242 3.2 16.1 0.00 0.66 0.00 84 1001.6
20260904011515 12 250 9.7 24.1 0.00 0.66 0.00 84 1001.6
20260904010011 12 265 8.0 16.1 0.00 0.66 0.00 85 1001.8
20260904004510 12 268 8.0 17.7 0.00 0.66 0.00 85 1001.7
20260904003014 12 294 1.6 14.5 0.00 0.66 0.00 84 1001.9
20260904001514 12 257 4.8 16.1 0.00 0.66 0.00 86 1002.0
20260904000009 12 267 3.2 16.1 0.00 0.66 0.00 86 1002.2
20260903234510 13 245 6.4 12.9 0.00 0.66 0.00 87 1001.9
20260903233009 13 244 4.8 17.7 0.00 0.66 0.00 88 1002.3
20260903231524 13 234 9.7 19.3 0.00 0.66 0.00 89 1002.6
20260903230009 13 242 9.7 20.9 0.00 0.66 0.00 90 1002.3
20260903224527 13 221 4.8 11.3 0.00 0.66 0.00 91 1002.5
20260903223011 13 252 8.0 17.7 0.00 0.66 0.00 92 1002.3
20260903221503 13 265 11.3 19.3 0.00 0.66 0.00 95 1002.7
20260903220009 13 192 4.8 11.3 0.00 0.66 0.66 96 1002.3
20260903214515 13 199 3.2 9.7 0.00 0.66 0.66 97 1002.7
20260903213010 12 192 4.8 9.7 0.00 0.66 0.66 100 1002.6
20260903211509 12 192 4.8 8.0 0.00 0.66 0.66 100 1002.5
20260903210010 12 192 3.2 8.0 0.00 0.66 0.66 100 1002.7
20260903204512 12 306 3.2 6.4 0.00 0.66 0.66 100 1002.7
20260903203009 12 315 0.0 0.0 0.03 0.66 0.66 100 1002.7
20260903201508 12 315 0.0 0.0 0.03 0.66 0.66 98 1002.6
20260903200010 12 315 0.0 0.0 0.03 0.66 0.66 98 1002.8
20260903194512 12 315 0.0 0.0 0.05 0.66 0.66 97 1003.0
20260903193011 12 314 0.0 4.8 0.10 0.64 0.64 97 1003.1
20260903191509 12 317 1.6 6.4 0.15 0.64 0.64 97 1003.1
20260903190009 12 316 0.0 4.8 0.20 0.64 0.64 97 1002.9
20260903184510 12 317 1.6 8.0 0.28 0.61 0.61 97 1002.8
20260903183011 12 331 4.8 8.0 0.20 0.53 0.53 96 1002.8
20260903181510 12 330 4.8 9.7 0.18 0.51 0.51 96 1002.6
20260903180011 12 14 3.2 14.5 0.13 0.43 0.43 96 1002.6
20260903174510 12 323 1.6 8.0 0.05 0.33 0.33 95 1002.6
20260903173009 12 9 0.0 3.2 0.05 0.33 0.33 95 1002.5
20260903171509 12 17 1.6 3.2 0.05 0.33 0.33 95 1002.6